Location: Frankfurt am Main
(50.1109°N, 8.6821°E)
Time: 17:29:10
(UTC+01:00)

ISS - Pass Details

Date: 24 January 2020
Orbit: 415 x 422 km, 51.6° (Epoch: 26 February)

Event Time Altitude Azimuth Distance (km) Brightness Sun altitude
Rises 18:19:27 0° 224° (SW) 2,371 1.2 -11.9°
Reaches altitude 10° 18:21:40 10° 215° (SW) 1,508 -0.2 -12.2°
Maximum altitude 18:24:46 34° 148° (SSE) 721 -2.7 -12.7°
Enters shadow 18:26:24 21° 98° (E) 1,005 -2.4 -12.9°
